AAL1065 KBNA-KCLT

Flight info

Callsign AAL1065
Flight time 0h 49m
Altitude 31000
Route TAZMO4 BURME COMDY FILPZ4
Aircraft B738/M-SDE2E3FGHIRWXY/LB1

Departure

Time 2026-05-07 01:34
Airport Nashville International Airport (KBNA)

Arrival

Time 2026-05-07 02:23
Airport Charlotte Douglas International Airport (KCLT)
Time Latitude Longitude Altitude Speed Heading
2026-05-07 01:04 36.12889 -86.67131 568 ft 0 kts 86°
2026-05-07 01:24 36.12889 -86.67134 540 ft 2 kts 86°
2026-05-07 01:25 36.12887 -86.67166 571 ft 4 kts 81°
2026-05-07 01:25 36.12881 -86.67197 574 ft 4 kts 72°
2026-05-07 01:25 36.12870 -86.67227 569 ft 4 kts 44°
2026-05-07 01:25 36.12854 -86.67237 573 ft 1 kts 345°
2026-05-07 01:26 36.12850 -86.67235 568 ft 0 kts 345°
2026-05-07 01:29 36.12859 -86.67243 572 ft 1 kts 309°
2026-05-07 01:29 36.12859 -86.67253 573 ft 4 kts 266°
2026-05-07 01:29 36.12815 -86.67321 571 ft 17 kts 222°
2026-05-07 01:30 36.12714 -86.67403 574 ft 16 kts 178°
2026-05-07 01:30 36.12634 -86.67325 576 ft 16 kts 134°
2026-05-07 01:30 36.12548 -86.67213 574 ft 20 kts 133°
2026-05-07 01:30 36.12451 -86.67087 574 ft 20 kts 131°
2026-05-07 01:31 36.12359 -86.66964 576 ft 18 kts 133°
2026-05-07 01:31 36.12287 -86.66845 571 ft 17 kts 114°
2026-05-07 01:31 36.12252 -86.66715 569 ft 16 kts 109°
2026-05-07 01:31 36.12218 -86.66589 571 ft 14 kts 118°
2026-05-07 01:32 36.12135 -86.66567 573 ft 13 kts 199°
2026-05-07 01:32 36.12043 -86.66604 575 ft 18 kts 198°
2026-05-07 01:32 36.11893 -86.66662 578 ft 25 kts 198°
2026-05-07 01:32 36.11733 -86.66729 585 ft 23 kts 195°
2026-05-07 01:33 36.11581 -86.66787 587 ft 22 kts 199°
2026-05-07 01:33 36.11446 -86.66844 591 ft 20 kts 196°
2026-05-07 01:33 36.11337 -86.66880 591 ft 13 kts 174°
2026-05-07 01:33 36.11292 -86.66800 589 ft 12 kts 100°
2026-05-07 01:34 36.11391 -86.66719 590 ft 41 kts 17°
2026-05-07 01:34 36.11942 -86.66498 580 ft 123 kts 18°
2026-05-07 01:34 36.12952 -86.66107 749 ft 174 kts 15°
2026-05-07 01:34 36.14080 -86.65676 1913 ft 167 kts 17°
2026-05-07 01:35 36.15084 -86.65019 2859 ft 176 kts 42°
2026-05-07 01:35 36.15973 -86.63783 3150 ft 206 kts 49°
2026-05-07 01:35 36.16972 -86.62398 3439 ft 227 kts 45°
2026-05-07 01:35 36.18116 -86.60960 3938 ft 241 kts 44°
2026-05-07 01:36 36.19369 -86.59403 4310 ft 266 kts 44°
2026-05-07 01:36 36.20693 -86.57743 4983 ft 278 kts 44°
2026-05-07 01:36 36.21922 -86.55830 5652 ft 294 kts 63°
2026-05-07 01:36 36.22282 -86.53311 6335 ft 306 kts 98°
2026-05-07 01:37 36.21718 -86.50745 7004 ft 313 kts 111°
2026-05-07 01:37 36.21027 -86.48177 7822 ft 316 kts 111°
2026-05-07 01:37 36.20350 -86.45568 8659 ft 319 kts 111°
2026-05-07 01:37 36.19684 -86.42943 9536 ft 321 kts 112°
2026-05-07 01:38 36.18884 -86.40370 10369 ft 320 kts 118°
2026-05-07 01:38 36.17950 -86.37776 10716 ft 341 kts 119°
2026-05-07 01:38 36.16938 -86.35033 11039 ft 359 kts 120°
2026-05-07 01:38 36.15888 -86.32177 11551 ft 370 kts 119°
2026-05-07 01:39 36.14857 -86.29310 12194 ft 375 kts 119°
2026-05-07 01:39 36.13792 -86.26321 12824 ft 382 kts 120°
2026-05-07 01:39 36.12717 -86.23284 13479 ft 388 kts 119°
2026-05-07 01:39 36.11629 -86.20207 14078 ft 394 kts 120°
2026-05-07 01:40 36.10509 -86.17086 14682 ft 398 kts 120°
2026-05-07 01:40 36.09385 -86.13922 15278 ft 405 kts 121°
2026-05-07 01:40 36.08240 -86.10708 15834 ft 412 kts 121°
2026-05-07 01:40 36.07161 -86.07434 16361 ft 424 kts 112°
2026-05-07 01:41 36.06703 -86.03763 16902 ft 438 kts 97°
2026-05-07 01:41 36.06521 -85.99997 17432 ft 445 kts 96°
2026-05-07 01:41 36.06313 -85.96143 17946 ft 452 kts 98°
2026-05-07 01:41 36.06058 -85.92241 18444 ft 458 kts 98°
2026-05-07 01:42 36.05786 -85.88291 19003 ft 462 kts 98°
2026-05-07 01:42 36.05509 -85.84337 19620 ft 462 kts 98°
2026-05-07 01:42 36.05227 -85.80368 20188 ft 465 kts 98°
2026-05-07 01:42 36.04942 -85.76367 20740 ft 469 kts 98°
2026-05-07 01:43 36.04656 -85.72338 21280 ft 472 kts 98°
2026-05-07 01:43 36.04368 -85.68291 21840 ft 474 kts 98°
2026-05-07 01:43 36.04084 -85.64226 22380 ft 477 kts 98°
2026-05-07 01:43 36.03798 -85.60128 22900 ft 480 kts 98°
2026-05-07 01:44 36.03501 -85.56002 23399 ft 483 kts 98°
2026-05-07 01:44 36.03201 -85.51860 23849 ft 486 kts 98°
2026-05-07 01:44 36.02901 -85.47691 24229 ft 489 kts 98°
2026-05-07 01:44 36.02606 -85.43533 24582 ft 493 kts 98°
2026-05-07 01:45 36.02305 -85.39300 24972 ft 496 kts 98°
2026-05-07 01:45 36.01994 -85.35029 25396 ft 498 kts 99°
2026-05-07 01:45 36.01678 -85.30745 25741 ft 502 kts 99°
2026-05-07 01:45 36.01363 -85.26422 26092 ft 506 kts 99°
2026-05-07 01:46 36.01046 -85.22079 26444 ft 510 kts 99°
2026-05-07 01:46 36.00722 -85.17694 26800 ft 513 kts 99°
2026-05-07 01:46 36.00390 -85.13296 27146 ft 516 kts 99°
2026-05-07 01:46 36.00059 -85.08886 27481 ft 519 kts 99°
2026-05-07 01:47 35.99724 -85.04444 27805 ft 522 kts 99°
2026-05-07 01:47 35.99433 -84.99987 28372 ft 519 kts 99°
2026-05-07 01:47 35.99174 -84.95603 28921 ft 516 kts 98°
2026-05-07 01:47 35.98924 -84.91181 29409 ft 516 kts 99°
2026-05-07 01:48 35.98667 -84.86742 29815 ft 516 kts 99°
2026-05-07 01:48 35.98404 -84.82310 30209 ft 517 kts 99°
2026-05-07 01:48 35.98137 -84.77892 30600 ft 516 kts 99°
2026-05-07 01:48 35.97869 -84.73495 30965 ft 516 kts 99°
2026-05-07 01:49 35.97595 -84.69097 30992 ft 522 kts 99°
2026-05-07 01:49 35.97040 -84.60210 30987 ft 514 kts 99°
2026-05-07 01:50 35.96490 -84.51447 30999 ft 511 kts 100°
2026-05-07 01:50 35.95919 -84.42656 31004 ft 514 kts 100°
2026-05-07 01:51 35.95344 -84.33835 30988 ft 517 kts 101°
2026-05-07 01:51 35.94760 -84.24971 30981 ft 518 kts 100°
2026-05-07 01:52 35.94280 -84.17567 30979 ft 516 kts 100°
2026-05-07 01:52 35.93743 -84.09444 30975 ft 514 kts 100°
2026-05-07 01:53 35.93249 -84.02116 30975 ft 512 kts 101°
2026-05-07 01:53 35.92644 -83.93381 30979 ft 510 kts 100°
2026-05-07 01:54 35.92055 -83.84672 30981 ft 509 kts 99°
2026-05-07 01:54 35.91449 -83.75979 30991 ft 508 kts 100°
2026-05-07 01:55 35.90837 -83.67349 30976 ft 509 kts 100°
2026-05-07 01:55 35.90294 -83.59571 30985 ft 510 kts 100°
2026-05-07 01:56 35.89667 -83.50838 30973 ft 511 kts 99°
2026-05-07 01:56 35.88657 -83.42318 30940 ft 488 kts 111°
2026-05-07 01:56 35.87739 -83.38322 30631 ft 480 kts 114°
2026-05-07 01:57 35.86763 -83.34397 30358 ft 476 kts 114°
2026-05-07 01:57 35.85808 -83.30494 29998 ft 474 kts 113°
2026-05-07 01:57 35.84895 -83.26596 29573 ft 472 kts 112°
2026-05-07 01:57 35.84029 -83.22752 29180 ft 469 kts 111°
2026-05-07 01:58 35.83171 -83.18890 28801 ft 466 kts 111°
2026-05-07 01:58 35.82315 -83.15046 28401 ft 463 kts 111°
2026-05-07 01:58 35.81469 -83.11240 28089 ft 459 kts 110°
2026-05-07 01:58 35.80630 -83.07454 27706 ft 457 kts 110°
2026-05-07 01:59 35.79794 -83.03686 27350 ft 454 kts 110°
2026-05-07 01:59 35.78958 -82.99926 26957 ft 453 kts 110°
2026-05-07 01:59 35.78126 -82.96193 26611 ft 451 kts 110°
2026-05-07 01:59 35.77296 -82.92471 26237 ft 450 kts 110°
2026-05-07 02:00 35.76467 -82.88768 25856 ft 448 kts 110°
2026-05-07 02:00 35.75644 -82.85068 25511 ft 445 kts 110°
2026-05-07 02:00 35.74827 -82.81439 25122 ft 444 kts 111°
2026-05-07 02:00 35.73999 -82.77787 24771 ft 441 kts 109°
2026-05-07 02:01 35.73181 -82.74168 24416 ft 439 kts 109°
2026-05-07 02:01 35.72364 -82.70532 24080 ft 438 kts 109°
2026-05-07 02:01 35.71548 -82.66911 23658 ft 440 kts 109°
2026-05-07 02:01 35.70724 -82.63284 23195 ft 440 kts 109°
2026-05-07 02:02 35.69896 -82.59656 22745 ft 440 kts 109°
2026-05-07 02:02 35.69070 -82.56028 22309 ft 440 kts 109°
2026-05-07 02:02 35.68246 -82.52414 21876 ft 440 kts 109°
2026-05-07 02:02 35.67413 -82.48794 21401 ft 439 kts 109°
2026-05-07 02:03 35.66582 -82.45185 20982 ft 439 kts 109°
2026-05-07 02:03 35.65758 -82.41605 20555 ft 439 kts 109°
2026-05-07 02:03 35.64923 -82.37987 20139 ft 439 kts 109°
2026-05-07 02:03 35.64097 -82.34381 19700 ft 439 kts 109°
2026-05-07 02:04 35.63270 -82.30783 19293 ft 438 kts 109°
2026-05-07 02:04 35.62440 -82.27181 18858 ft 438 kts 109°
2026-05-07 02:04 35.61604 -82.23593 18455 ft 436 kts 109°
2026-05-07 02:04 35.60771 -82.20012 18014 ft 435 kts 109°
2026-05-07 02:05 35.59942 -82.16440 17562 ft 433 kts 109°
2026-05-07 02:05 35.59134 -82.12941 17133 ft 431 kts 109°
2026-05-07 02:05 35.58316 -82.09403 16729 ft 428 kts 109°
2026-05-07 02:05 35.57500 -82.05898 16312 ft 425 kts 109°
2026-05-07 02:06 35.56784 -82.02387 15929 ft 422 kts 105°
2026-05-07 02:06 35.56168 -81.98917 15556 ft 419 kts 105°
2026-05-07 02:06 35.55569 -81.95445 15156 ft 412 kts 105°
2026-05-07 02:06 35.54969 -81.92048 14762 ft 400 kts 106°
2026-05-07 02:07 35.54374 -81.88757 14393 ft 389 kts 105°
2026-05-07 02:07 35.53238 -81.82429 13637 ft 368 kts 106°
2026-05-07 02:07 35.52684 -81.79398 13254 ft 359 kts 106°
2026-05-07 02:08 35.52144 -81.76456 12912 ft 350 kts 106°
2026-05-07 02:08 35.51619 -81.73598 12565 ft 342 kts 106°
2026-05-07 02:08 35.51108 -81.70780 12237 ft 334 kts 106°
2026-05-07 02:08 35.50604 -81.68010 11933 ft 330 kts 106°
2026-05-07 02:09 35.50101 -81.65265 11600 ft 328 kts 107°
2026-05-07 02:09 35.49601 -81.62550 11289 ft 325 kts 106°
2026-05-07 02:09 35.49116 -81.59826 11000 ft 330 kts 103°
2026-05-07 02:09 35.49122 -81.56990 10702 ft 336 kts 83°
2026-05-07 02:10 35.49475 -81.54166 10408 ft 334 kts 83°
2026-05-07 02:10 35.49799 -81.51349 10120 ft 332 kts 84°
2026-05-07 02:10 35.50090 -81.48538 9847 ft 331 kts 84°
2026-05-07 02:10 35.50366 -81.45738 9539 ft 331 kts 85°
2026-05-07 02:11 35.50638 -81.42936 9244 ft 329 kts 85°
2026-05-07 02:11 35.50900 -81.40187 9010 ft 318 kts 85°
2026-05-07 02:11 35.51152 -81.37557 8718 ft 302 kts 85°
2026-05-07 02:11 35.51394 -81.35058 8466 ft 286 kts 86°
2026-05-07 02:12 35.51619 -81.32741 8216 ft 273 kts 85°
2026-05-07 02:12 35.51839 -81.30464 7961 ft 260 kts 85°
2026-05-07 02:12 35.52054 -81.28293 7764 ft 254 kts 85°
2026-05-07 02:12 35.52264 -81.26116 7569 ft 261 kts 86°
2026-05-07 02:13 35.52478 -81.23879 7360 ft 265 kts 85°
2026-05-07 02:13 35.52693 -81.21613 7133 ft 268 kts 85°
2026-05-07 02:13 35.52907 -81.19352 7014 ft 264 kts 85°
2026-05-07 02:13 35.53106 -81.17107 6977 ft 264 kts 86°
2026-05-07 02:14 35.53291 -81.14887 6967 ft 261 kts 86°
2026-05-07 02:14 35.53410 -81.13406 6810 ft 263 kts 87°
2026-05-07 02:14 35.53594 -81.11177 6500 ft 260 kts 86°
2026-05-07 02:14 35.53778 -81.08964 6074 ft 261 kts 86°
2026-05-07 02:15 35.53953 -81.06755 5704 ft 259 kts 86°
2026-05-07 02:15 35.54133 -81.04566 5459 ft 255 kts 88°
2026-05-07 02:15 35.54276 -81.02397 5273 ft 254 kts 89°
2026-05-07 02:15 35.54104 -81.00317 5112 ft 239 kts 118°
2026-05-07 02:16 35.53246 -80.98729 5005 ft 214 kts 140°
2026-05-07 02:16 35.52263 -80.97419 4880 ft 204 kts 142°
2026-05-07 02:16 35.51236 -80.96297 4763 ft 189 kts 165°
2026-05-07 02:16 35.50024 -80.96057 4727 ft 177 kts 187°
2026-05-07 02:17 35.48774 -80.95919 4598 ft 186 kts 182°
2026-05-07 02:17 35.47485 -80.95788 4475 ft 185 kts 185°
2026-05-07 02:17 35.46224 -80.95676 4377 ft 179 kts 185°
2026-05-07 02:17 35.44993 -80.95567 4266 ft 177 kts 184°
2026-05-07 02:18 35.43766 -80.95455 4136 ft 175 kts 185°
2026-05-07 02:18 35.42537 -80.95352 4028 ft 181 kts 185°
2026-05-07 02:18 35.41277 -80.95244 3956 ft 179 kts 185°
2026-05-07 02:18 35.40063 -80.95138 3948 ft 174 kts 185°
2026-05-07 02:19 35.38890 -80.95037 3886 ft 169 kts 186°
2026-05-07 02:19 35.37710 -80.94936 3692 ft 170 kts 185°
2026-05-07 02:19 35.36524 -80.94833 3461 ft 168 kts 185°
2026-05-07 02:19 35.35396 -80.94733 3275 ft 157 kts 186°
2026-05-07 02:20 35.34384 -80.94643 3093 ft 140 kts 186°
2026-05-07 02:20 35.33438 -80.94562 2906 ft 133 kts 187°
2026-05-07 02:20 35.32516 -80.94486 2732 ft 134 kts 187°
2026-05-07 02:20 35.31562 -80.94407 2563 ft 142 kts 187°
2026-05-07 02:21 35.30604 -80.94322 2378 ft 136 kts 187°
2026-05-07 02:21 35.29679 -80.94266 2171 ft 128 kts 188°
2026-05-07 02:21 35.28761 -80.94181 2017 ft 134 kts 182°
2026-05-07 02:21 35.27827 -80.94086 1862 ft 135 kts 185°
2026-05-07 02:22 35.26884 -80.93999 1677 ft 136 kts 182°
2026-05-07 02:22 35.25914 -80.93917 1474 ft 144 kts 180°
2026-05-07 02:22 35.24895 -80.93828 1287 ft 148 kts 178°
2026-05-07 02:22 35.23865 -80.93734 1078 ft 153 kts 175°
2026-05-07 02:23 35.22782 -80.93637 827 ft 156 kts 177°
2026-05-07 02:23 35.21740 -80.93555 734 ft 139 kts 176°
2026-05-07 02:23 35.20889 -80.93486 733 ft 90 kts 176°
2026-05-07 02:23 35.20578 -80.93482 734 ft 29 kts 197°
2026-05-07 02:24 35.20467 -80.93557 732 ft 10 kts 242°
2026-05-07 02:24 35.20476 -80.93588 732 ft 2 kts 328°
2026-05-07 02:24 35.20493 -80.93591 731 ft 7 kts
2026-05-07 02:24 35.20574 -80.93590 732 ft 15 kts 356°
2026-05-07 02:25 35.20676 -80.93600 732 ft 14 kts 355°
2026-05-07 02:25 35.20774 -80.93606 732 ft 14 kts 356°
2026-05-07 02:25 35.20866 -80.93614 732 ft 13 kts 357°
2026-05-07 02:25 35.20955 -80.93621 732 ft 12 kts 356°
2026-05-07 02:26 35.21049 -80.93630 732 ft 18 kts 356°
2026-05-07 02:26 35.21092 -80.93634 732 ft 0 kts 355°
2026-05-07 02:27 35.21109 -80.93636 732 ft 7 kts 353°
2026-05-07 02:27 35.21196 -80.93640 732 ft 18 kts 358°
2026-05-07 02:28 35.21324 -80.93653 732 ft 17 kts 355°
2026-05-07 02:28 35.21430 -80.93662 732 ft 14 kts 355°
2026-05-07 02:28 35.21533 -80.93672 732 ft 16 kts 354°
2026-05-07 02:28 35.21615 -80.93747 731 ft 16 kts 304°
2026-05-07 02:29 35.21681 -80.93847 731 ft 15 kts 311°
2026-05-07 02:29 35.21757 -80.93930 731 ft 12 kts 322°
2026-05-07 02:29 35.21814 -80.93958 731 ft 9 kts 359°
2026-05-07 02:29 35.21874 -80.93958 731 ft 9 kts
2026-05-07 02:30 35.21905 -80.93957 731 ft 4 kts
2026-05-07 02:30 35.21936 -80.93956 731 ft 3 kts
2026-05-07 02:30 35.21969 -80.93964 731 ft 4 kts 345°
2026-05-07 02:30 35.21993 -80.93969 731 ft 2 kts 353°
2026-05-07 02:31 35.22006 -80.93971 731 ft 2 kts 355°
2026-05-07 02:31 35.22009 -80.93971 731 ft 1 kts 355°
2026-05-07 02:31 35.22012 -80.93971 731 ft 0 kts 355°